Time,TemperatureF,DewpointF,PressureIn,WindDirection,WindDirectionDegrees,WindSpeedMPH,WindSpeedGustMPH,Humidity,HourlyPrecipIn,Conditions,Clouds,dailyrainin,SoftwareType,DateUTC
2013-05-21 00:01:00,68.7,61.2,28.88,South,180,0.0,0.0,77,0.00,,,0.00,WSDL version 420,2013-05-21 04:01:00,
2013-05-21 00:07:00,68.7,61.2,28.88,North,-999,-999.0,-999.0,77,0.00,,,0.00,WSDL version 420,2013-05-21 04:07:00,
2013-05-21 00:13:00,68.5,61.1,28.88,WSW,248,0.0,0.0,77,0.00,,,0.00,WSDL version 420,2013-05-21 04:13:00,
2013-05-21 00:19:00,68.5,61.1,28.88,WSW,248,0.0,0.0,77,0.00,,,0.00,WSDL version 420,2013-05-21 04:19:00,
2013-05-21 00:21:00,68.5,61.1,28.88,WSW,248,0.0,0.0,77,0.00,,,0.00,WSDL version 420,2013-05-21 04:21:00,
2013-05-21 00:25:00,68.5,61.1,28.88,WSW,248,0.0,0.0,77,0.00,,,0.00,WSDL version 420,2013-05-21 04:25:00,
2013-05-21 00:27:00,68.5,61.1,28.88,North,-999,-999.0,-999.0,77,0.00,,,0.00,WSDL version 420,2013-05-21 04:27:00,
2013-05-21 00:33:00,68.4,60.9,28.88,North,-999,-999.0,-999.0,77,0.00,,,0.00,WSDL version 420,2013-05-21 04:33:00,
2013-05-21 00:35:00,68.3,60.8,28.88,West,270,0.0,0.0,77,0.00,,,0.00,WSDL version 420,2013-05-21 04:35:00,
2013-05-21 00:37:00,68.2,60.7,28.88,SSW,203,0.0,0.0,77,0.00,,,0.00,WSDL version 420,2013-05-21 04:37:00,
2013-05-21 00:41:00,68.2,60.8,28.88,SSW,203,0.0,0.0,78,0.00,,,0.00,WSDL version 420,2013-05-21 04:41:00,
2013-05-21 00:43:00,68.2,60.9,28.88,SSW,203,0.0,0.0,78,0.00,,,0.00,WSDL version 420,2013-05-21 04:43:00,
2013-05-21 00:47:00,68.2,61.1,28.88,North,-999,-999.0,-999.0,78,0.00,,,0.00,WSDL version 420,2013-05-21 04:47:00,
2013-05-21 00:49:00,68.2,61.1,28.88,South,180,0.0,0.0,78,0.00,,,0.00,WSDL version 420,2013-05-21 04:49:00,
2013-05-21 00:51:00,68.2,61.1,28.88,South,180,0.0,0.0,78,0.00,,,0.00,WSDL version 420,2013-05-21 04:51:00,
2013-05-21 00:53:00,68.2,61.1,28.88,South,180,0.0,0.0,78,0.00,,,0.00,WSDL version 420,2013-05-21 04:53:00,
2013-05-21 00:55:00,68.2,61.1,28.88,South,180,0.0,0.0,78,0.00,,,0.00,WSDL version 420,2013-05-21 04:55:00,
2013-05-21 00:59:00,68.1,61.0,28.88,South,180,0.0,0.0,78,0.00,,,0.00,WSDL version 420,2013-05-21 04:59:00,
2013-05-21 01:01:00,68.1,61.0,28.88,South,180,0.0,0.0,78,0.00,,,0.00,WSDL version 420,2013-05-21 05:01:00,
2013-05-21 01:03:00,68.0,60.9,28.88,North,-999,-999.0,-999.0,78,0.00,,,0.00,WSDL version 420,2013-05-21 05:03:00,
2013-05-21 01:05:00,68.0,60.9,28.88,South,180,0.0,0.0,78,0.00,,,0.00,WSDL version 420,2013-05-21 05:05:00,
2013-05-21 01:07:00,68.0,60.9,28.88,North,-999,-999.0,-999.0,78,0.00,,,0.00,WSDL version 420,2013-05-21 05:07:00,
2013-05-21 01:13:00,68.0,60.9,28.88,South,180,0.0,0.0,78,0.00,,,0.00,WSDL version 420,2013-05-21 05:13:00,
2013-05-21 01:15:00,68.0,60.9,28.88,South,180,0.0,0.0,78,0.00,,,0.00,WSDL version 420,2013-05-21 05:15:00,
2013-05-21 01:19:00,68.0,60.9,28.88,North,0,0.0,0.0,78,0.00,,,0.00,WSDL version 420,2013-05-21 05:19:00,
2013-05-21 01:21:00,68.0,60.9,28.88,North,-999,-999.0,-999.0,78,0.00,,,0.00,WSDL version 420,2013-05-21 05:21:00,
2013-05-21 01:23:00,68.0,60.9,28.88,South,180,0.0,0.0,78,0.00,,,0.00,WSDL version 420,2013-05-21 05:23:00,
2013-05-21 01:25:00,68.0,60.9,28.88,South,180,0.0,0.0,78,0.00,,,0.00,WSDL version 420,2013-05-21 05:25:00,
2013-05-21 01:27:00,68.0,60.9,28.88,South,180,0.0,0.0,78,0.00,,,0.00,WSDL version 420,2013-05-21 05:27:00,
2013-05-21 01:29:00,67.9,60.8,28.88,NNE,28,0.0,0.0,78,0.00,,,0.00,WSDL version 420,2013-05-21 05:29:00,
2013-05-21 01:31:00,67.9,60.8,28.88,South,180,0.0,0.0,79,0.00,,,0.00,WSDL version 420,2013-05-21 05:31:00,
2013-05-21 01:35:00,67.8,61.1,28.88,South,180,0.0,0.0,79,0.00,,,0.00,WSDL version 420,2013-05-21 05:35:00,
2013-05-21 01:41:00,67.8,61.0,28.88,NE,45,0.0,0.0,79,0.00,,,0.00,WSDL version 420,2013-05-21 05:41:00,
2013-05-21 01:45:00,67.6,60.6,28.85,NE,45,0.0,0.0,78,0.00,,,0.00,WSDL version 420,2013-05-21 05:45:00,
2013-05-21 01:47:00,67.5,60.4,28.85,North,-999,-999.0,-999.0,78,0.00,,,0.00,WSDL version 420,2013-05-21 05:47:00,
2013-05-21 01:49:00,67.5,60.4,28.85,NE,45,0.0,0.0,78,0.00,,,0.00,WSDL version 420,2013-05-21 05:49:00,
2013-05-21 01:51:00,67.5,60.4,28.85,NE,45,0.0,0.0,79,0.00,,,0.00,WSDL version 420,2013-05-21 05:51:00,
2013-05-21 01:53:00,67.5,60.6,28.85,NE,45,0.0,0.0,79,0.00,,,0.00,WSDL version 420,2013-05-21 05:53:00,
2013-05-21 01:57:00,67.4,60.7,28.85,NE,45,0.0,0.0,79,0.00,,,0.00,WSDL version 420,2013-05-21 05:57:00,
2013-05-21 01:59:00,67.4,60.6,28.85,NE,45,0.0,0.0,79,0.00,,,0.00,WSDL version 420,2013-05-21 05:59:00,
2013-05-21 02:01:00,67.3,60.6,28.85,NE,45,0.0,0.0,79,0.00,,,0.00,WSDL version 420,2013-05-21 06:01:00,
2013-05-21 02:05:00,67.3,60.6,28.85,ENE,68,0.0,0.0,79,0.00,,,0.00,WSDL version 420,2013-05-21 06:05:00,
2013-05-21 02:07:00,67.3,60.6,28.85,ENE,68,0.0,0.0,79,0.00,,,0.00,WSDL version 420,2013-05-21 06:07:00,
2013-05-21 02:09:00,67.3,60.6,28.85,SSE,158,0.0,0.0,79,0.00,,,0.00,WSDL version 420,2013-05-21 06:09:00,
2013-05-21 02:11:00,67.3,60.6,28.85,SSE,158,0.0,0.0,79,0.00,,,0.00,WSDL version 420,2013-05-21 06:11:00,
2013-05-21 02:13:00,67.3,60.6,28.85,North,0,0.0,0.0,79,0.00,,,0.00,WSDL version 420,2013-05-21 06:13:00,
2013-05-21 02:15:00,67.3,60.6,28.85,SSE,158,0.0,0.0,79,0.00,,,0.00,WSDL version 420,2013-05-21 06:15:00,
2013-05-21 02:17:00,67.3,60.5,28.85,NE,45,0.0,0.0,79,0.00,,,0.00,WSDL version 420,2013-05-21 06:17:00,
2013-05-21 02:19:00,67.2,60.5,28.85,NNE,23,0.0,0.0,79,0.00,,,0.00,WSDL version 420,2013-05-21 06:19:00,
2013-05-21 02:21:00,67.1,60.4,28.85,NNE,23,0.0,0.0,79,0.00,,,0.00,WSDL version 420,2013-05-21 06:21:00,
2013-05-21 02:25:00,67.0,60.3,28.85,NNE,23,0.0,0.0,79,0.00,,,0.00,WSDL version 420,2013-05-21 06:25:00,
2013-05-21 02:27:00,67.0,60.3,28.85,North,0,0.0,0.0,79,0.00,,,0.00,WSDL version 420,2013-05-21 06:27:00,
2013-05-21 02:31:00,66.9,60.2,28.85,SSE,158,0.0,0.0,79,0.00,,,0.00,WSDL version 420,2013-05-21 06:31:00,
2013-05-21 02:37:00,67.1,60.3,28.85,South,173,0.0,0.0,79,0.00,,,0.00,WSDL version 420,2013-05-21 06:37:00,
2013-05-21 02:43:00,67.1,60.4,28.85,South,180,0.0,0.0,79,0.00,,,0.00,WSDL version 420,2013-05-21 06:43:00,
2013-05-21 02:45:00,67.1,60.4,28.85,South,180,0.0,0.0,79,0.00,,,0.00,WSDL version 420,2013-05-21 06:45:00,
2013-05-21 02:47:00,67.1,60.4,28.85,South,180,0.0,0.0,79,0.00,,,0.00,WSDL version 420,2013-05-21 06:47:00,
2013-05-21 02:49:00,67.1,60.4,28.85,South,180,0.0,0.0,79,0.00,,,0.00,WSDL version 420,2013-05-21 06:49:00,
2013-05-21 02:53:00,67.1,60.4,28.85,SE,124,0.0,0.0,79,0.00,,,0.00,WSDL version 420,2013-05-21 06:53:00,
2013-05-21 02:55:00,67.0,60.3,28.85,SE,141,0.0,0.0,79,0.00,,,0.00,WSDL version 420,2013-05-21 06:55:00,
2013-05-21 02:57:00,67.0,60.2,28.85,South,180,0.0,0.0,79,0.00,,,0.00,WSDL version 420,2013-05-21 06:57:00,
2013-05-21 02:59:00,66.9,60.2,28.85,South,180,0.0,0.0,79,0.00,,,0.00,WSDL version 420,2013-05-21 06:59:00,
2013-05-21 03:01:00,66.9,60.2,28.85,North,0,0.0,0.0,79,0.00,,,0.00,WSDL version 420,2013-05-21 07:01:00,
2013-05-21 03:05:00,66.8,60.1,28.85,North,-999,-999.0,-999.0,79,0.00,,,0.00,WSDL version 420,2013-05-21 07:05:00,
2013-05-21 03:07:00,66.7,60.0,28.85,NE,45,0.0,0.0,79,0.00,,,0.00,WSDL version 420,2013-05-21 07:07:00,
2013-05-21 03:09:00,66.7,60.0,28.85,ENE,77,0.0,0.0,79,0.00,,,0.00,WSDL version 420,2013-05-21 07:09:00,
2013-05-21 03:11:00,66.7,60.0,28.85,SSW,203,0.0,0.0,79,0.00,,,0.00,WSDL version 420,2013-05-21 07:11:00,
2013-05-21 03:17:00,66.7,60.0,28.85,South,188,0.0,0.0,79,0.00,,,0.00,WSDL version 420,2013-05-21 07:17:00,
2013-05-21 03:19:00,66.7,60.0,28.85,North,0,0.0,0.0,79,0.00,,,0.00,WSDL version 420,2013-05-21 07:19:00,
2013-05-21 03:21:00,66.7,60.0,28.85,South,180,0.0,0.0,79,0.00,,,0.00,WSDL version 420,2013-05-21 07:21:00,
2013-05-21 03:23:00,66.7,60.0,28.85,South,180,0.0,0.0,79,0.00,,,0.00,WSDL version 420,2013-05-21 07:23:00,
2013-05-21 03:25:00,66.7,60.0,28.85,North,-999,-999.0,-999.0,79,0.00,,,0.00,WSDL version 420,2013-05-21 07:25:00,
2013-05-21 03:27:00,66.7,60.1,28.85,SE,143,0.0,0.0,80,0.00,,,0.00,WSDL version 420,2013-05-21 07:27:00,
2013-05-21 03:29:00,66.7,60.3,28.85,South,180,0.0,0.0,80,0.00,,,0.00,WSDL version 420,2013-05-21 07:29:00,
2013-05-21 03:31:00,66.7,60.4,28.85,South,180,0.0,0.0,80,0.00,,,0.00,WSDL version 420,2013-05-21 07:31:00,
2013-05-21 03:35:00,66.7,60.4,28.85,South,180,0.0,0.0,80,0.00,,,0.00,WSDL version 420,2013-05-21 07:35:00,
2013-05-21 03:37:00,66.7,60.4,28.85,SSE,158,0.0,0.0,80,0.00,,,0.00,WSDL version 420,2013-05-21 07:37:00,
2013-05-21 03:39:00,66.7,60.4,28.85,SSE,158,0.0,0.0,80,0.00,,,0.00,WSDL version 420,2013-05-21 07:39:00,
2013-05-21 03:41:00,66.7,60.4,28.85,SSE,158,0.0,0.0,80,0.00,,,0.00,WSDL version 420,2013-05-21 07:41:00,
2013-05-21 03:43:00,66.7,60.4,28.85,SSE,158,0.0,0.0,80,0.00,,,0.00,WSDL version 420,2013-05-21 07:43:00,
2013-05-21 03:49:00,66.9,60.5,28.85,SSE,158,0.0,0.0,80,0.00,,,0.00,WSDL version 420,2013-05-21 07:49:00,
2013-05-21 03:51:00,66.9,60.6,28.85,SSE,150,0.0,0.0,80,0.00,,,0.00,WSDL version 420,2013-05-21 07:51:00,
2013-05-21 03:53:00,66.9,60.6,28.85,SSE,158,0.0,0.0,80,0.00,,,0.00,WSDL version 420,2013-05-21 07:53:00,
2013-05-21 03:57:00,66.9,60.6,28.85,South,180,0.0,0.0,80,0.00,,,0.00,WSDL version 420,2013-05-21 07:57:00,
2013-05-21 03:59:00,66.9,60.6,28.85,South,180,0.0,0.0,80,0.00,,,0.00,WSDL version 420,2013-05-21 07:59:00,
2013-05-21 04:01:00,66.9,60.6,28.85,South,180,0.0,0.0,80,0.00,,,0.00,WSDL version 420,2013-05-21 08:01:00,
2013-05-21 04:03:00,66.9,60.6,28.85,North,0,0.0,0.0,80,0.00,,,0.00,WSDL version 420,2013-05-21 08:03:00,
2013-05-21 04:05:00,66.9,60.6,28.85,South,180,0.0,0.0,80,0.00,,,0.00,WSDL version 420,2013-05-21 08:05:00,
2013-05-21 04:09:00,66.9,60.6,28.85,South,180,0.0,0.0,80,0.00,,,0.00,WSDL version 420,2013-05-21 08:09:00,
2013-05-21 04:11:00,66.9,60.6,28.85,South,180,0.0,0.0,80,0.00,,,0.00,WSDL version 420,2013-05-21 08:11:00,
2013-05-21 04:13:00,66.9,60.6,28.85,North,-999,-999.0,-999.0,80,0.00,,,0.00,WSDL version 420,2013-05-21 08:13:00,
2013-05-21 04:17:00,66.9,60.6,28.85,North,-999,-999.0,-999.0,80,0.00,,,0.00,WSDL version 420,2013-05-21 08:17:00,
2013-05-21 04:19:00,66.9,60.5,28.85,North,-999,-999.0,-999.0,80,0.00,,,0.00,WSDL version 420,2013-05-21 08:19:00,
2013-05-21 04:21:00,66.8,60.5,28.85,North,-999,-999.0,-999.0,80,0.00,,,0.00,WSDL version 420,2013-05-21 08:21:00,
2013-05-21 04:23:00,66.8,60.4,28.85,North,-999,-999.0,-999.0,80,0.00,,,0.00,WSDL version 420,2013-05-21 08:23:00,
2013-05-21 04:25:00,66.7,60.3,28.85,West,270,0.0,0.0,80,0.00,,,0.00,WSDL version 420,2013-05-21 08:25:00,
2013-05-21 04:29:00,66.6,60.2,28.85,NW,315,0.0,0.0,80,0.00,,,0.00,WSDL version 420,2013-05-21 08:29:00,
2013-05-21 04:31:00,66.6,60.2,28.85,ENE,60,0.0,0.0,80,0.00,,,0.00,WSDL version 420,2013-05-21 08:31:00,
2013-05-21 04:35:00,66.4,60.1,28.85,North,-999,-999.0,-999.0,80,0.00,,,0.00,WSDL version 420,2013-05-21 08:35:00,
2013-05-21 04:37:00,66.4,60.0,28.85,North,360,0.0,0.0,80,0.00,,,0.00,WSDL version 420,2013-05-21 08:37:00,
2013-05-21 04:39:00,66.4,60.0,28.85,South,180,0.0,0.0,80,0.00,,,0.00,WSDL version 420,2013-05-21 08:39:00,
2013-05-21 04:41:00,66.4,60.0,28.85,South,180,0.0,0.0,80,0.00,,,0.00,WSDL version 420,2013-05-21 08:41:00,
2013-05-21 04:43:00,66.4,60.0,28.85,North,-999,-999.0,-999.0,80,0.00,,,0.00,WSDL version 420,2013-05-21 08:43:00,
2013-05-21 04:45:00,66.4,60.0,28.85,South,180,0.0,0.0,80,0.00,,,0.00,WSDL version 420,2013-05-21 08:45:00,
2013-05-21 04:47:00,66.4,60.0,28.85,NNE,23,0.0,0.0,80,0.00,,,0.00,WSDL version 420,2013-05-21 08:47:00,
2013-05-21 04:49:00,66.4,60.0,28.85,NE,45,0.0,0.0,80,0.00,,,0.00,WSDL version 420,2013-05-21 08:49:00,
2013-05-21 04:53:00,66.4,60.0,28.85,ESE,113,0.0,0.0,80,0.00,,,0.00,WSDL version 420,2013-05-21 08:53:00,
2013-05-21 04:55:00,66.4,60.0,28.85,ESE,113,0.0,0.0,80,0.00,,,0.00,WSDL version 420,2013-05-21 08:55:00,
2013-05-21 04:59:00,66.4,60.0,28.85,South,180,0.0,0.0,80,0.00,,,0.00,WSDL version 420,2013-05-21 08:59:00,
2013-05-21 05:01:00,66.4,60.1,28.85,SSE,158,0.0,0.0,80,0.00,,,0.00,WSDL version 420,2013-05-21 09:01:00,
2013-05-21 05:05:00,66.6,60.2,28.85,SSE,158,0.0,0.0,80,0.00,,,0.00,WSDL version 420,2013-05-21 09:05:00,
2013-05-21 05:07:00,66.6,60.2,28.85,South,180,0.0,0.0,80,0.00,,,0.00,WSDL version 420,2013-05-21 09:07:00,
2013-05-21 05:09:00,66.6,60.2,28.85,South,173,0.0,0.0,80,0.00,,,0.00,WSDL version 420,2013-05-21 09:09:00,
2013-05-21 05:11:00,66.6,60.2,28.85,South,180,0.0,0.0,80,0.00,,,0.00,WSDL version 420,2013-05-21 09:11:00,
2013-05-21 05:13:00,66.6,60.2,28.85,South,180,0.0,0.0,80,0.00,,,0.00,WSDL version 420,2013-05-21 09:13:00,
2013-05-21 05:15:00,66.6,60.2,28.85,South,180,0.0,0.0,80,0.00,,,0.00,WSDL version 420,2013-05-21 09:15:00,
2013-05-21 05:17:00,66.5,60.1,28.85,NW,315,0.0,0.0,80,0.00,,,0.00,WSDL version 420,2013-05-21 09:17:00,
2013-05-21 05:19:00,66.3,60.0,28.85,NW,315,0.0,0.0,80,0.00,,,0.00,WSDL version 420,2013-05-21 09:19:00,
2013-05-21 05:23:00,66.1,59.7,28.85,NW,315,0.0,0.0,80,0.00,,,0.00,WSDL version 420,2013-05-21 09:23:00,
2013-05-21 05:25:00,66.0,59.7,28.85,NW,315,0.0,0.0,80,0.00,,,0.00,WSDL version 420,2013-05-21 09:25:00,
2013-05-21 05:27:00,66.0,59.7,28.85,NW,315,0.0,0.0,80,0.00,,,0.00,WSDL version 420,2013-05-21 09:27:00,
2013-05-21 05:31:00,66.0,59.7,28.85,SSW,203,0.0,0.0,80,0.00,,,0.00,WSDL version 420,2013-05-21 09:31:00,
2013-05-21 05:33:00,66.0,59.7,28.85,SSW,203,0.0,0.0,80,0.00,,,0.00,WSDL version 420,2013-05-21 09:33:00,
2013-05-21 05:35:00,66.0,59.9,28.85,South,171,0.0,0.0,81,0.00,,,0.00,WSDL version 420,2013-05-21 09:35:00,
2013-05-21 05:37:00,66.0,59.9,28.85,North,360,0.0,0.0,80,0.00,,,0.00,WSDL version 420,2013-05-21 09:37:00,
2013-05-21 05:39:00,66.0,59.8,28.85,North,0,0.0,0.0,80,0.00,,,0.00,WSDL version 420,2013-05-21 09:39:00,
2013-05-21 05:41:00,66.0,59.9,28.85,NW,321,0.0,0.0,81,0.00,,,0.00,WSDL version 420,2013-05-21 09:41:00,
2013-05-21 05:43:00,66.0,59.9,28.85,North,0,0.0,0.0,80,0.00,,,0.00,WSDL version 420,2013-05-21 09:43:00,
2013-05-21 05:45:00,66.0,60.0,28.85,SSW,203,0.0,0.0,81,0.00,,,0.00,WSDL version 420,2013-05-21 09:45:00,
2013-05-21 05:47:00,66.0,60.0,28.85,SSW,203,0.0,0.0,81,0.00,,,0.00,WSDL version 420,2013-05-21 09:47:00,
2013-05-21 05:51:00,66.0,60.1,28.85,SSW,203,0.0,0.0,81,0.00,,,0.00,WSDL version 420,2013-05-21 09:51:00,
2013-05-21 05:53:00,66.0,60.1,28.85,SSW,195,0.0,0.0,81,0.00,,,0.00,WSDL version 420,2013-05-21 09:53:00,
2013-05-21 05:55:00,66.0,60.1,28.85,North,0,0.0,0.0,81,0.00,,,0.00,WSDL version 420,2013-05-21 09:55:00,
2013-05-21 05:57:00,66.0,60.1,28.85,SSW,203,0.0,0.0,81,0.00,,,0.00,WSDL version 420,2013-05-21 09:57:00,
2013-05-21 06:01:00,66.0,60.1,28.85,SSW,203,0.0,0.0,81,0.00,,,0.00,WSDL version 420,2013-05-21 10:01:00,
2013-05-21 06:03:00,66.0,60.1,28.85,North,0,0.0,0.0,81,0.00,,,0.00,WSDL version 420,2013-05-21 10:03:00,
2013-05-21 06:05:00,66.0,60.1,28.85,SSW,203,0.0,0.0,81,0.00,,,0.00,WSDL version 420,2013-05-21 10:05:00,
2013-05-21 06:07:00,66.0,60.1,28.85,SSW,203,0.0,0.0,81,0.00,,,0.00,WSDL version 420,2013-05-21 10:07:00,
2013-05-21 06:09:00,65.9,60.0,28.85,SSW,203,0.0,0.0,81,0.00,,,0.00,WSDL version 420,2013-05-21 10:09:00,
2013-05-21 06:13:00,65.9,60.0,28.85,South,180,0.0,0.0,81,0.00,,,0.00,WSDL version 420,2013-05-21 10:13:00,
2013-05-21 06:15:00,66.0,60.0,28.85,South,180,0.0,0.0,81,0.00,,,0.00,WSDL version 420,2013-05-21 10:15:00,
2013-05-21 06:17:00,66.0,60.0,28.85,South,180,0.0,0.0,81,0.00,,,0.00,WSDL version 420,2013-05-21 10:17:00,
2013-05-21 06:19:00,65.9,60.0,28.85,SSE,158,0.0,0.0,81,0.00,,,0.00,WSDL version 420,2013-05-21 10:19:00,
2013-05-21 06:23:00,66.0,60.0,28.85,SSE,158,0.0,0.0,81,0.00,,,0.00,WSDL version 420,2013-05-21 10:23:00,
2013-05-21 06:25:00,66.0,60.1,28.85,SSE,158,0.0,0.0,81,0.00,,,0.00,WSDL version 420,2013-05-21 10:25:00,
2013-05-21 06:31:00,66.0,60.1,28.85,South,180,0.0,0.0,81,0.00,,,0.00,WSDL version 420,2013-05-21 10:31:00,
2013-05-21 06:33:00,66.0,60.1,28.85,South,180,0.0,0.0,81,0.00,,,0.00,WSDL version 420,2013-05-21 10:33:00,
2013-05-21 06:35:00,66.0,60.1,28.85,South,180,0.0,0.0,81,0.00,,,0.00,WSDL version 420,2013-05-21 10:35:00,
2013-05-21 06:37:00,66.0,60.1,28.85,South,180,0.0,0.0,81,0.00,,,0.00,WSDL version 420,2013-05-21 10:37:00,
2013-05-21 06:41:00,65.9,59.9,28.85,South,180,0.0,0.0,81,0.00,,,0.00,WSDL version 420,2013-05-21 10:41:00,
2013-05-21 06:43:00,65.8,59.9,28.85,South,180,0.0,0.0,81,0.00,,,0.00,WSDL version 420,2013-05-21 10:43:00,
2013-05-21 06:45:00,65.8,59.9,28.85,South,180,0.0,0.0,81,0.00,,,0.00,WSDL version 420,2013-05-21 10:45:00,
2013-05-21 06:47:00,65.8,59.9,28.85,South,180,0.0,0.0,81,0.00,,,0.00,WSDL version 420,2013-05-21 10:47:00,
2013-05-21 06:49:00,65.8,59.9,28.85,South,180,0.0,0.0,81,0.00,,,0.00,WSDL version 420,2013-05-21 10:49:00,
2013-05-21 06:51:00,65.9,59.9,28.85,South,180,0.0,0.0,81,0.00,,,0.00,WSDL version 420,2013-05-21 10:51:00,
2013-05-21 06:53:00,65.9,60.0,28.85,South,180,0.0,0.0,81,0.00,,,0.00,WSDL version 420,2013-05-21 10:53:00,
2013-05-21 06:55:00,66.0,60.1,28.85,South,180,0.0,0.0,81,0.00,,,0.00,WSDL version 420,2013-05-21 10:55:00,
2013-05-21 06:59:00,66.0,60.1,28.88,SE,135,0.0,0.0,81,0.00,,,0.00,WSDL version 420,2013-05-21 10:59:00,
2013-05-21 07:01:00,66.0,60.1,28.88,ESE,113,0.0,0.0,81,0.00,,,0.00,WSDL version 420,2013-05-21 11:01:00,
2013-05-21 07:05:00,66.0,60.1,28.88,ESE,113,0.0,0.0,81,0.00,,,0.00,WSDL version 420,2013-05-21 11:05:00,
2013-05-21 07:07:00,66.0,60.1,28.88,NE,56,0.0,0.0,81,0.00,,,0.00,WSDL version 420,2013-05-21 11:07:00,
2013-05-21 07:11:00,66.0,60.1,28.88,ENE,68,0.0,0.0,81,0.00,,,0.00,WSDL version 420,2013-05-21 11:11:00,
2013-05-21 07:13:00,66.1,60.1,28.85,South,180,0.0,0.0,81,0.00,,,0.00,WSDL version 420,2013-05-21 11:13:00,
2013-05-21 07:15:00,66.1,60.2,28.85,South,180,0.0,0.0,81,0.00,,,0.00,WSDL version 420,2013-05-21 11:15:00,
2013-05-21 07:17:00,66.2,60.2,28.85,North,-999,-999.0,-999.0,81,0.00,,,0.00,WSDL version 420,2013-05-21 11:17:00,
2013-05-21 07:19:00,66.2,60.2,28.85,SSE,158,0.0,0.0,81,0.00,,,0.00,WSDL version 420,2013-05-21 11:19:00,
2013-05-21 07:21:00,66.2,60.3,28.85,South,180,0.0,0.0,81,0.00,,,0.00,WSDL version 420,2013-05-21 11:21:00,
2013-05-21 07:23:00,66.3,60.3,28.85,South,180,0.0,0.0,81,0.00,,,0.00,WSDL version 420,2013-05-21 11:23:00,
2013-05-21 07:27:00,66.4,60.4,28.85,SSE,149,0.0,0.0,81,0.00,,,0.00,WSDL version 420,2013-05-21 11:27:00,
2013-05-21 07:29:00,66.4,60.5,28.85,SE,135,0.0,0.0,81,0.00,,,0.00,WSDL version 420,2013-05-21 11:29:00,
2013-05-21 07:31:00,66.5,60.5,28.85,SE,135,0.0,0.0,81,0.00,,,0.00,WSDL version 420,2013-05-21 11:31:00,
2013-05-21 07:35:00,66.7,60.8,28.85,South,180,0.0,0.0,82,0.00,,,0.00,WSDL version 420,2013-05-21 11:35:00,
2013-05-21 07:37:00,66.8,61.0,28.85,South,180,0.0,0.0,82,0.00,,,0.00,WSDL version 420,2013-05-21 11:37:00,
2013-05-21 07:39:00,66.8,61.1,28.85,South,180,0.0,0.0,82,0.00,,,0.00,WSDL version 420,2013-05-21 11:39:00,
2013-05-21 07:43:00,67.0,61.4,28.85,South,180,0.0,0.0,82,0.00,,,0.00,WSDL version 420,2013-05-21 11:43:00,
2013-05-21 07:45:00,67.0,61.4,28.85,South,180,0.0,0.0,82,0.00,,,0.00,WSDL version 420,2013-05-21 11:45:00,
2013-05-21 07:47:00,67.1,61.5,28.85,South,180,0.0,0.0,82,0.00,,,0.00,WSDL version 420,2013-05-21 11:47:00,
2013-05-21 07:49:00,67.1,61.5,28.85,South,180,0.0,0.0,82,0.00,,,0.00,WSDL version 420,2013-05-21 11:49:00,
2013-05-21 07:51:00,67.3,61.6,28.85,South,180,0.0,0.0,82,0.00,,,0.00,WSDL version 420,2013-05-21 11:51:00,
2013-05-21 07:53:00,67.4,61.8,28.85,NE,45,0.0,0.0,82,0.00,,,0.00,WSDL version 420,2013-05-21 11:53:00,
2013-05-21 07:55:00,67.5,61.9,28.85,ESE,113,0.0,0.0,82,0.00,,,0.00,WSDL version 420,2013-05-21 11:55:00,
2013-05-21 07:57:00,67.7,62.2,28.85,North,-999,-999.0,-999.0,83,0.00,,,0.00,WSDL version 420,2013-05-21 11:57:00,
2013-05-21 08:01:00,68.0,62.5,28.85,NE,45,0.0,0.0,83,0.00,,,0.00,WSDL version 420,2013-05-21 12:01:00,
2013-05-21 08:03:00,68.2,62.8,28.85,NE,45,0.0,0.0,83,0.00,,,0.00,WSDL version 420,2013-05-21 12:03:00,
2013-05-21 08:05:00,68.5,63.2,28.85,SSE,158,0.0,0.0,83,0.00,,,0.00,WSDL version 420,2013-05-21 12:05:00,
2013-05-21 08:07:00,68.6,63.3,28.85,North,0,0.0,0.0,83,0.00,,,0.00,WSDL version 420,2013-05-21 12:07:00,
2013-05-21 08:11:00,68.8,63.5,28.85,South,180,0.0,0.0,83,0.00,,,0.00,WSDL version 420,2013-05-21 12:11:00,
2013-05-21 08:15:00,69.0,63.9,28.88,North,0,0.0,0.0,84,0.00,,,0.00,WSDL version 420,2013-05-21 12:15:00,
2013-05-21 08:17:00,69.1,64.1,28.88,NE,45,0.0,0.0,84,0.00,,,0.00,WSDL version 420,2013-05-21 12:17:00,
2013-05-21 08:21:00,69.4,64.5,28.88,NE,45,0.0,0.0,84,0.00,,,0.00,WSDL version 420,2013-05-21 12:21:00,
2013-05-21 08:25:00,69.8,64.9,28.88,NE,45,0.0,0.0,84,0.00,,,0.00,WSDL version 420,2013-05-21 12:25:00,
2013-05-21 08:27:00,70.0,65.1,28.88,NE,45,0.0,0.0,84,0.00,,,0.00,WSDL version 420,2013-05-21 12:27:00,
2013-05-21 08:29:00,70.2,65.3,28.88,NE,45,0.0,0.0,84,0.00,,,0.00,WSDL version 420,2013-05-21 12:29:00,
2013-05-21 08:33:00,70.4,65.4,28.88,NE,45,0.0,0.0,83,0.00,,,0.00,WSDL version 420,2013-05-21 12:33:00,
2013-05-21 08:35:00,70.6,65.4,28.88,SSE,158,0.0,0.0,83,0.00,,,0.00,WSDL version 420,2013-05-21 12:35:00,
2013-05-21 08:37:00,70.6,65.3,28.88,East,101,0.0,0.0,83,0.00,,,0.00,WSDL version 420,2013-05-21 12:37:00,
2013-05-21 08:39:00,70.7,65.4,28.88,NE,45,0.0,0.0,83,0.00,,,0.00,WSDL version 420,2013-05-21 12:39:00,
2013-05-21 08:41:00,70.8,65.5,28.88,NE,45,0.0,0.0,83,0.00,,,0.00,WSDL version 420,2013-05-21 12:41:00,
2013-05-21 08:43:00,70.9,65.5,28.88,NE,45,0.0,0.0,82,0.00,,,0.00,WSDL version 420,2013-05-21 12:43:00,
2013-05-21 08:45:00,71.0,65.5,28.88,NE,56,0.0,0.0,82,0.00,,,0.00,WSDL version 420,2013-05-21 12:45:00,
2013-05-21 08:47:00,71.2,65.5,28.88,ENE,68,0.0,0.0,82,0.00,,,0.00,WSDL version 420,2013-05-21 12:47:00,
2013-05-21 08:49:00,71.3,65.5,28.88,East,90,0.0,0.0,81,0.00,,,0.00,WSDL version 420,2013-05-21 12:49:00,
2013-05-21 08:53:00,71.6,65.4,28.88,NE,45,0.0,0.0,80,0.00,,,0.00,WSDL version 420,2013-05-21 12:53:00,
2013-05-21 08:55:00,71.7,65.4,28.88,NE,45,0.0,0.0,80,0.00,,,0.00,WSDL version 420,2013-05-21 12:55:00,
2013-05-21 08:57:00,71.8,65.3,28.91,NE,45,0.0,0.0,80,0.00,,,0.00,WSDL version 420,2013-05-21 12:57:00,
2013-05-21 09:01:00,72.1,65.5,28.91,NE,45,0.0,0.0,79,0.00,,,0.00,WSDL version 420,2013-05-21 13:01:00,
2013-05-21 09:05:00,72.3,65.4,28.91,NE,45,0.0,0.0,79,0.00,,,0.00,WSDL version 420,2013-05-21 13:05:00,
2013-05-21 09:07:00,72.5,65.4,28.91,NE,45,0.0,0.0,78,0.00,,,0.00,WSDL version 420,2013-05-21 13:07:00,
2013-05-21 09:11:00,72.8,65.3,28.91,NE,34,0.0,0.0,77,0.00,,,0.00,WSDL version 420,2013-05-21 13:11:00,
2013-05-21 09:13:00,72.9,65.3,28.91,North,-999,-999.0,-999.0,77,0.00,,,0.00,WSDL version 420,2013-05-21 13:13:00,
2013-05-21 09:15:00,73.0,65.3,28.91,North,-999,-999.0,-999.0,77,0.00,,,0.00,WSDL version 420,2013-05-21 13:15:00,
2013-05-21 09:19:00,73.2,65.2,28.91,East,90,0.0,0.0,76,0.00,,,0.00,WSDL version 420,2013-05-21 13:19:00,
2013-05-21 09:21:00,73.3,65.3,28.91,ENE,68,0.0,0.0,76,0.00,,,0.00,WSDL version 420,2013-05-21 13:21:00,
2013-05-21 09:25:00,73.4,65.2,28.91,East,90,0.0,0.0,75,0.00,,,0.00,WSDL version 420,2013-05-21 13:25:00,
2013-05-21 09:29:00,73.5,65.1,28.91,North,0,0.0,0.0,75,0.00,,,0.00,WSDL version 420,2013-05-21 13:29:00,
2013-05-21 09:31:00,73.6,65.2,28.91,NE,38,0.0,0.0,75,0.00,,,0.00,WSDL version 420,2013-05-21 13:31:00,
2013-05-21 09:33:00,73.6,65.1,28.91,North,360,0.0,0.0,74,0.00,,,0.00,WSDL version 420,2013-05-21 13:33:00,
2013-05-21 09:37:00,73.7,64.9,28.91,ENE,68,0.0,0.0,74,0.00,,,0.00,WSDL version 420,2013-05-21 13:37:00,
2013-05-21 09:39:00,73.8,65.0,28.91,SSE,158,0.0,0.0,74,0.00,,,0.00,WSDL version 420,2013-05-21 13:39:00,
2013-05-21 09:45:00,74.0,64.8,28.91,NE,45,0.0,0.0,73,0.00,,,0.00,WSDL version 420,2013-05-21 13:45:00,
2013-05-21 09:47:00,74.0,64.7,28.91,NE,45,0.0,0.0,72,0.00,,,0.00,WSDL version 420,2013-05-21 13:47:00,
2013-05-21 09:49:00,74.1,64.6,28.91,North,360,0.0,0.0,72,0.00,,,0.00,WSDL version 420,2013-05-21 13:49:00,
2013-05-21 09:55:00,74.3,64.6,28.91,ESE,113,0.0,0.0,71,0.00,,,0.00,WSDL version 420,2013-05-21 13:55:00,
2013-05-21 09:59:00,74.6,64.7,28.91,SE,135,0.0,0.0,71,0.00,,,0.00,WSDL version 420,2013-05-21 13:59:00,
2013-05-21 10:01:00,74.8,64.8,28.91,South,180,0.0,0.0,71,0.00,,,0.00,WSDL version 420,2013-05-21 14:01:00,
2013-05-21 10:03:00,74.9,64.9,28.91,SSE,158,0.0,0.0,71,0.00,,,0.00,WSDL version 420,2013-05-21 14:03:00,
2013-05-21 10:05:00,75.1,64.9,28.91,SE,135,0.0,0.0,70,0.00,,,0.00,WSDL version 420,2013-05-21 14:05:00,
2013-05-21 12:59:00,83.2,60.3,28.91,SSW,203,0.0,0.0,46,0.00,,,0.00,WSDL version 420,2013-05-21 16:59:00,
2013-05-21 13:03:00,82.9,59.9,28.91,North,-999,-999.0,-999.0,46,0.00,,,0.00,WSDL version 420,2013-05-21 17:03:00,
2013-05-21 13:09:00,83.0,60.0,28.91,North,-999,-999.0,-999.0,46,0.00,,,0.00,WSDL version 420,2013-05-21 17:09:00,
2013-05-21 13:11:00,83.3,60.4,28.91,SW,225,0.0,0.0,46,0.00,,,0.00,WSDL version 420,2013-05-21 17:11:00,
2013-05-21 13:15:00,83.8,60.3,28.91,North,0,0.0,1.3,44,0.00,,,0.00,WSDL version 420,2013-05-21 17:15:00,
2013-05-21 13:17:00,83.8,59.9,28.91,North,-999,-999.0,-999.0,45,0.00,,,0.00,WSDL version 420,2013-05-21 17:17:00,
2013-05-21 13:23:00,83.3,59.7,28.91,SE,146,0.0,2.7,45,0.00,,,0.00,WSDL version 420,2013-05-21 17:23:00,
2013-05-21 13:25:00,83.2,59.5,28.91,SE,135,0.5,2.7,45,0.00,,,0.00,WSDL version 420,2013-05-21 17:25:00,
2013-05-21 13:27:00,83.2,59.5,28.91,South,180,0.0,2.7,45,0.00,,,0.00,WSDL version 420,2013-05-21 17:27:00,
2013-05-21 13:29:00,83.5,59.9,28.91,East,90,0.0,2.7,45,0.00,,,0.00,WSDL version 420,2013-05-21 17:29:00,
2013-05-21 13:33:00,83.8,60.4,28.91,North,-999,-999.0,-999.0,45,0.00,,,0.00,WSDL version 420,2013-05-21 17:33:00,
2013-05-21 13:35:00,83.8,60.4,28.91,NE,45,0.0,0.9,45,0.00,,,0.00,WSDL version 420,2013-05-21 17:35:00,
2013-05-21 13:37:00,83.9,60.2,28.91,North,-999,-999.0,-999.0,44,0.00,,,0.00,WSDL version 420,2013-05-21 17:37:00,
2013-05-21 13:39:00,84.1,60.1,28.91,NW,315,0.0,0.0,44,0.00,,,0.00,WSDL version 420,2013-05-21 17:39:00,
2013-05-21 13:41:00,84.3,60.2,28.91,North,-999,-999.0,-999.0,45,0.00,,,0.00,WSDL version 420,2013-05-21 17:41:00,
2013-05-21 13:43:00,84.4,60.4,28.88,North,-999,-999.0,-999.0,44,0.00,,,0.00,WSDL version 420,2013-05-21 17:43:00,
2013-05-21 13:45:00,84.7,60.6,28.88,North,-999,-999.0,-999.0,44,0.00,,,0.00,WSDL version 420,2013-05-21 17:45:00,
2013-05-21 13:47:00,85.0,60.6,28.88,NW,315,0.0,0.0,44,0.00,,,0.00,WSDL version 420,2013-05-21 17:47:00,
2013-05-21 13:49:00,85.0,60.6,28.88,North,-999,-999.0,-999.0,43,0.00,,,0.00,WSDL version 420,2013-05-21 17:49:00,
2013-05-21 13:53:00,85.0,60.3,28.88,North,-999,-999.0,-999.0,43,0.00,,,0.00,WSDL version 420,2013-05-21 17:53:00,
2013-05-21 13:55:00,85.3,60.4,28.88,North,-999,-999.0,-999.0,43,0.00,,,0.00,WSDL version 420,2013-05-21 17:55:00,
2013-05-21 14:01:00,86.0,60.3,28.91,ESE,113,1.6,2.2,41,0.00,,,0.00,WSDL version 420,2013-05-21 18:01:00,
2013-05-21 14:05:00,86.4,60.3,28.91,North,-999,-999.0,-999.0,41,0.00,,,0.00,WSDL version 420,2013-05-21 18:05:00,
2013-05-21 14:07:00,86.6,60.4,28.91,North,-999,-999.0,-999.0,41,0.00,,,0.00,WSDL version 420,2013-05-21 18:07:00,
2013-05-21 14:09:00,86.7,60.2,28.91,North,-999,-999.0,-999.0,41,0.00,,,0.00,WSDL version 420,2013-05-21 18:09:00,
2013-05-21 14:13:00,86.8,60.6,28.88,South,180,0.0,2.2,41,0.00,,,0.00,WSDL version 420,2013-05-21 18:13:00,
2013-05-21 14:15:00,86.9,60.7,28.88,South,180,0.0,2.2,41,0.00,,,0.00,WSDL version 420,2013-05-21 18:15:00,
2013-05-21 14:17:00,87.1,60.7,28.88,South,180,0.9,2.2,41,0.00,,,0.00,WSDL version 420,2013-05-21 18:17:00,
2013-05-21 14:21:00,87.3,60.4,28.88,North,-999,-999.0,-999.0,40,0.00,,,0.00,WSDL version 420,2013-05-21 18:21:00,
2013-05-21 14:23:00,87.4,60.0,28.88,South,188,1.5,2.5,39,0.00,,,0.00,WSDL version 420,2013-05-21 18:23:00,
2013-05-21 14:25:00,87.4,59.4,28.88,South,180,0.0,2.5,39,0.00,,,0.00,WSDL version 420,2013-05-21 18:25:00,
2013-05-21 14:27:00,87.4,59.3,28.88,South,180,0.0,2.5,39,0.00,,,0.00,WSDL version 420,2013-05-21 18:27:00,
2013-05-21 14:29:00,87.3,59.2,28.88,SW,225,0.0,2.5,39,0.00,,,0.00,WSDL version 420,2013-05-21 18:29:00,
2013-05-21 14:35:00,87.3,59.1,28.88,NNW,338,0.0,0.0,39,0.00,,,0.00,WSDL version 420,2013-05-21 18:35:00,
2013-05-21 14:37:00,87.2,59.3,28.88,North,-999,-999.0,-999.0,39,0.00,,,0.00,WSDL version 420,2013-05-21 18:37:00,
2013-05-21 14:39:00,87.1,58.6,28.88,North,360,0.0,0.0,37,0.00,,,0.00,WSDL version 420,2013-05-21 18:39:00,
2013-05-21 14:43:00,87.1,58.1,28.88,East,90,0.0,0.0,38,0.00,,,0.00,WSDL version 420,2013-05-21 18:43:00,
2013-05-21 14:45:00,87.2,58.4,28.88,North,-999,-999.0,-999.0,38,0.00,,,0.00,WSDL version 420,2013-05-21 18:45:00,
2013-05-21 14:47:00,87.3,58.6,28.88,North,-999,-999.0,-999.0,38,0.00,,,0.00,WSDL version 420,2013-05-21 18:47:00,
2013-05-21 14:51:00,87.4,59.3,28.88,North,-999,-999.0,-999.0,39,0.00,,,0.00,WSDL version 420,2013-05-21 18:51:00,
2013-05-21 14:53:00,87.3,59.0,28.88,NNE,23,0.0,0.0,38,0.00,,,0.00,WSDL version 420,2013-05-21 18:53:00,
2013-05-21 14:55:00,87.1,58.4,28.88,West,270,0.0,0.0,38,0.00,,,0.00,WSDL version 420,2013-05-21 18:55:00,
2013-05-21 14:57:00,86.9,58.0,28.88,WNW,293,0.0,0.0,37,0.00,,,0.00,WSDL version 420,2013-05-21 18:57:00,
2013-05-21 15:03:00,87.1,58.4,28.88,SSW,203,0.0,0.0,38,0.00,,,0.00,WSDL version 420,2013-05-21 19:03:00,
2013-05-21 15:05:00,87.2,58.5,28.88,West,270,0.0,0.0,38,0.00,,,0.00,WSDL version 420,2013-05-21 19:05:00,
2013-05-21 15:09:00,87.3,58.6,28.88,SSW,203,0.0,0.0,38,0.00,,,0.00,WSDL version 420,2013-05-21 19:09:00,
2013-05-21 15:11:00,87.3,58.6,28.88,West,270,0.0,0.0,38,0.00,,,0.00,WSDL version 420,2013-05-21 19:11:00,
2013-05-21 15:13:00,87.2,58.6,28.88,East,90,0.0,0.0,38,0.00,,,0.00,WSDL version 420,2013-05-21 19:13:00,
2013-05-21 15:15:00,87.2,58.6,28.88,East,79,0.0,0.0,38,0.00,,,0.00,WSDL version 420,2013-05-21 19:15:00,
2013-05-21 15:17:00,87.3,58.7,28.88,East,83,0.0,0.0,39,0.00,,,0.00,WSDL version 420,2013-05-21 19:17:00,
2013-05-21 15:21:00,87.3,58.5,28.88,SSW,203,0.0,0.0,37,0.00,,,0.00,WSDL version 420,2013-05-21 19:21:00,
2013-05-21 15:23:00,87.3,57.7,28.88,North,-999,-999.0,-999.0,36,0.00,,,0.00,WSDL version 420,2013-05-21 19:23:00,
2013-05-21 15:27:00,87.3,58.6,28.88,SSW,203,0.0,0.0,39,0.00,,,0.00,WSDL version 420,2013-05-21 19:27:00,
2013-05-21 15:29:00,87.4,59.4,28.88,South,180,0.6,1.1,39,0.00,,,0.00,WSDL version 420,2013-05-21 19:29:00,
2013-05-21 15:33:00,87.3,59.2,28.88,South,180,0.0,1.1,39,0.00,,,0.00,WSDL version 420,2013-05-21 19:33:00,
2013-05-21 15:37:00,87.1,59.2,28.88,North,0,0.0,1.1,39,0.00,,,0.00,WSDL version 420,2013-05-21 19:37:00,
2013-05-21 15:39:00,87.0,59.0,28.88,SE,146,0.0,0.0,39,0.00,,,0.00,WSDL version 420,2013-05-21 19:39:00,
2013-05-21 15:43:00,86.6,58.9,28.88,South,180,1.1,0.0,38,0.00,,,0.00,WSDL version 420,2013-05-21 19:43:00,
2013-05-21 15:45:00,86.5,58.5,28.88,SSW,203,0.0,0.0,38,0.00,,,0.00,WSDL version 420,2013-05-21 19:45:00,
2013-05-21 15:47:00,86.3,57.7,28.88,SSW,203,0.0,0.0,38,0.00,,,0.00,WSDL version 420,2013-05-21 19:47:00,
2013-05-21 15:49:00,86.1,58.0,28.88,East,90,0.0,0.0,40,0.00,,,0.00,WSDL version 420,2013-05-21 19:49:00,
2013-05-21 15:53:00,85.6,58.5,28.88,East,90,0.0,0.0,40,0.00,,,0.00,WSDL version 420,2013-05-21 19:53:00,
2013-05-21 15:55:00,85.2,58.1,28.88,SSW,203,0.0,0.0,40,0.00,,,0.00,WSDL version 420,2013-05-21 19:55:00,
2013-05-21 15:57:00,84.9,57.5,28.85,SSW,203,0.0,0.0,39,0.00,,,0.00,WSDL version 420,2013-05-21 19:57:00,
2013-05-21 15:59:00,84.6,57.2,28.85,SSW,203,0.0,0.0,40,0.00,,,0.00,WSDL version 420,2013-05-21 19:59:00,
2013-05-21 16:03:00,84.3,57.8,28.85,SSW,203,0.0,0.0,41,0.00,,,0.00,WSDL version 420,2013-05-21 20:03:00,
2013-05-21 16:05:00,84.1,57.9,28.85,North,0,0.0,0.0,41,0.00,,,0.00,WSDL version 420,2013-05-21 20:05:00,
2013-05-21 16:07:00,83.9,57.9,28.85,SSW,203,0.0,0.0,42,0.00,,,0.00,WSDL version 420,2013-05-21 20:07:00,
2013-05-21 16:09:00,83.7,57.9,28.85,SSW,203,0.0,0.0,42,0.00,,,0.00,WSDL version 420,2013-05-21 20:09:00,
2013-05-21 16:11:00,83.5,58.3,28.85,SSW,203,0.0,0.0,43,0.00,,,0.00,WSDL version 420,2013-05-21 20:11:00,
2013-05-21 16:15:00,83.2,58.7,28.85,SSW,203,0.0,0.0,44,0.00,,,0.00,WSDL version 420,2013-05-21 20:15:00,
2013-05-21 16:17:00,83.1,59.2,28.85,SSW,203,0.0,0.0,45,0.00,,,0.00,WSDL version 420,2013-05-21 20:17:00,
2013-05-21 16:19:00,83.1,59.5,28.85,North,-999,-999.0,-999.0,46,0.00,,,0.00,WSDL version 420,2013-05-21 20:19:00,
2013-05-21 16:21:00,83.0,59.8,28.85,SSW,203,0.0,0.0,46,0.00,,,0.00,WSDL version 420,2013-05-21 20:21:00,
2013-05-21 16:25:00,83.1,60.5,28.85,SSW,203,0.0,0.0,47,0.00,,,0.00,WSDL version 420,2013-05-21 20:25:00,
2013-05-21 16:27:00,83.1,60.9,28.85,SSW,203,0.0,0.0,48,0.00,,,0.00,WSDL version 420,2013-05-21 20:27:00,
2013-05-21 16:29:00,83.2,61.0,28.85,South,180,0.0,0.0,47,0.00,,,0.00,WSDL version 420,2013-05-21 20:29:00,
2013-05-21 16:31:00,83.2,61.0,28.85,North,0,0.0,0.0,47,0.00,,,0.00,WSDL version 420,2013-05-21 20:31:00,
2013-05-21 16:35:00,83.0,60.5,28.85,South,180,0.0,0.0,46,0.00,,,0.00,WSDL version 420,2013-05-21 20:35:00,
2013-05-21 16:39:00,82.8,59.9,28.85,South,180,0.0,0.0,47,0.00,,,0.00,WSDL version 420,2013-05-21 20:39:00,
2013-05-21 16:41:00,82.8,60.3,28.85,South,180,0.0,0.0,47,0.00,,,0.00,WSDL version 420,2013-05-21 20:41:00,
2013-05-21 16:43:00,82.7,60.4,28.85,South,180,0.0,0.0,47,0.00,,,0.00,WSDL version 420,2013-05-21 20:43:00,
2013-05-21 16:47:00,82.6,60.5,28.85,South,180,0.0,0.0,48,0.00,,,0.00,WSDL version 420,2013-05-21 20:47:00,
2013-05-21 16:49:00,82.6,61.0,28.85,North,0,0.0,0.0,49,0.00,,,0.00,WSDL version 420,2013-05-21 20:49:00,
2013-05-21 16:51:00,82.6,61.3,28.85,South,180,0.0,0.0,49,0.00,,,0.00,WSDL version 420,2013-05-21 20:51:00,
2013-05-21 16:55:00,82.6,61.3,28.85,North,-999,-999.0,-999.0,48,0.00,,,0.00,WSDL version 420,2013-05-21 20:55:00,
2013-05-21 16:57:00,82.5,61.0,28.85,South,180,0.0,0.0,48,0.00,,,0.00,WSDL version 420,2013-05-21 20:57:00,
2013-05-21 16:59:00,82.5,61.0,28.85,South,180,0.0,0.0,49,0.00,,,0.00,WSDL version 420,2013-05-21 20:59:00,
2013-05-21 17:01:00,82.3,61.1,28.85,South,180,0.0,0.0,49,0.00,,,0.00,WSDL version 420,2013-05-21 21:01:00,
2013-05-21 17:03:00,82.2,61.1,28.85,North,0,0.0,0.0,48,0.00,,,0.00,WSDL version 420,2013-05-21 21:03:00,
2013-05-21 17:05:00,82.1,60.5,28.85,South,180,0.0,0.0,47,0.00,,,0.00,WSDL version 420,2013-05-21 21:05:00,
2013-05-21 17:07:00,82.0,60.2,28.85,South,180,0.0,0.0,48,0.00,,,0.00,WSDL version 420,2013-05-21 21:07:00,
2013-05-21 17:09:00,82.0,60.5,28.85,North,0,0.0,0.0,49,0.00,,,0.00,WSDL version 420,2013-05-21 21:09:00,
2013-05-21 17:11:00,82.0,60.7,28.85,South,180,0.0,0.0,49,0.00,,,0.00,WSDL version 420,2013-05-21 21:11:00,
2013-05-21 17:13:00,82.0,60.8,28.85,South,180,0.0,0.0,49,0.00,,,0.00,WSDL version 420,2013-05-21 21:13:00,
2013-05-21 17:15:00,82.0,60.9,28.85,South,180,0.0,0.0,49,0.00,,,0.00,WSDL version 420,2013-05-21 21:15:00,
2013-05-21 17:17:00,82.0,61.2,28.85,South,180,0.0,0.0,50,0.00,,,0.00,WSDL version 420,2013-05-21 21:17:00,
2013-05-21 17:23:00,82.0,60.3,28.85,North,-999,-999.0,-999.0,47,0.00,,,0.00,WSDL version 420,2013-05-21 21:23:00,
2013-05-21 17:25:00,82.1,60.1,28.85,North,-999,-999.0,-999.0,48,0.00,,,0.00,WSDL version 420,2013-05-21 21:25:00,
2013-05-21 17:27:00,82.2,60.3,28.85,SE,135,0.0,1.1,48,0.00,,,0.00,WSDL version 420,2013-05-21 21:27:00,
2013-05-21 17:29:00,82.2,60.4,28.85,SSW,203,0.0,1.1,47,0.00,,,0.00,WSDL version 420,2013-05-21 21:29:00,
2013-05-21 17:31:00,82.2,60.2,28.85,SSW,203,0.0,1.1,47,0.00,,,0.00,WSDL version 420,2013-05-21 21:31:00,
2013-05-21 17:35:00,82.2,59.8,28.85,South,191,1.0,1.1,46,0.00,,,0.00,WSDL version 420,2013-05-21 21:35:00,
2013-05-21 17:37:00,82.1,59.5,28.85,North,-999,-999.0,-999.0,46,0.00,,,0.00,WSDL version 420,2013-05-21 21:37:00,
2013-05-21 17:39:00,82.0,59.2,28.85,North,-999,-999.0,-999.0,46,0.00,,,0.00,WSDL version 420,2013-05-21 21:39:00,
2013-05-21 17:43:00,81.8,58.7,28.85,SSW,203,0.0,1.6,45,0.00,,,0.00,WSDL version 420,2013-05-21 21:43:00,
2013-05-21 17:45:00,81.7,58.6,28.85,SSW,203,0.0,1.6,46,0.00,,,0.00,WSDL version 420,2013-05-21 21:45:00,
2013-05-21 17:49:00,81.5,59.0,28.85,SSW,203,0.0,1.6,47,0.00,,,0.00,WSDL version 420,2013-05-21 21:49:00,
2013-05-21 17:51:00,81.5,59.1,28.85,SSW,203,0.0,0.0,47,0.00,,,0.00,WSDL version 420,2013-05-21 21:51:00,
2013-05-21 17:55:00,81.4,59.3,28.85,SSW,203,0.0,0.0,48,0.00,,,0.00,WSDL version 420,2013-05-21 21:55:00,
2013-05-21 17:57:00,81.3,59.4,28.82,SSW,203,0.0,0.0,48,0.00,,,0.00,WSDL version 420,2013-05-21 21:57:00,
2013-05-21 17:59:00,81.4,59.6,28.82,SSW,203,0.0,0.0,48,0.00,,,0.00,WSDL version 420,2013-05-21 21:59:00,
2013-05-21 18:01:00,81.4,59.8,28.82,North,0,0.0,0.0,48,0.00,,,0.00,WSDL version 420,2013-05-21 22:01:00,
2013-05-21 18:03:00,81.4,59.9,28.82,SSW,203,0.0,0.0,48,0.00,,,0.00,WSDL version 420,2013-05-21 22:03:00,
2013-05-21 18:05:00,81.4,59.8,28.82,SSW,203,0.0,0.0,48,0.00,,,0.00,WSDL version 420,2013-05-21 22:05:00,
2013-05-21 18:09:00,81.3,59.6,28.82,SSW,203,0.0,0.0,47,0.00,,,0.00,WSDL version 420,2013-05-21 22:09:00,
2013-05-21 18:11:00,81.3,59.5,28.82,SSW,203,0.0,0.0,48,0.00,,,0.00,WSDL version 420,2013-05-21 22:11:00,
2013-05-21 18:13:00,81.3,59.9,28.82,SSW,203,0.0,0.0,49,0.00,,,0.00,WSDL version 420,2013-05-21 22:13:00,
2013-05-21 18:15:00,81.3,60.1,28.82,SSW,203,0.0,0.0,49,0.00,,,0.00,WSDL version 420,2013-05-21 22:15:00,
2013-05-21 18:17:00,81.2,60.3,28.82,SSW,203,0.0,0.0,50,0.00,,,0.00,WSDL version 420,2013-05-21 22:17:00,
2013-05-21 18:21:00,80.9,60.6,28.82,SSW,203,0.0,0.0,50,0.00,,,0.00,WSDL version 420,2013-05-21 22:21:00,
2013-05-21 18:23:00,80.8,60.4,28.82,SSW,203,0.0,0.0,49,0.00,,,0.00,WSDL version 420,2013-05-21 22:23:00,
2013-05-21 18:29:00,80.7,60.5,28.82,WNW,293,0.0,0.0,51,0.00,,,0.00,WSDL version 420,2013-05-21 22:29:00,
2013-05-21 18:31:00,80.6,60.5,28.82,SSE,158,0.0,0.0,50,0.00,,,0.00,WSDL version 420,2013-05-21 22:31:00,
2013-05-21 18:33:00,80.7,60.4,28.82,SSE,158,0.0,0.0,50,0.00,,,0.00,WSDL version 420,2013-05-21 22:33:00,
2013-05-21 18:37:00,80.8,60.6,28.82,North,-999,-999.0,-999.0,51,0.00,,,0.00,WSDL version 420,2013-05-21 22:37:00,
2013-05-21 18:39:00,80.8,60.9,28.82,North,-999,-999.0,-999.0,51,0.00,,,0.00,WSDL version 420,2013-05-21 22:39:00,
2013-05-21 18:43:00,80.8,61.0,28.82,SSE,158,0.0,0.0,51,0.00,,,0.00,WSDL version 420,2013-05-21 22:43:00,
2013-05-21 18:45:00,80.8,61.2,28.82,SSE,158,0.0,0.0,52,0.00,,,0.00,WSDL version 420,2013-05-21 22:45:00,
2013-05-21 18:47:00,80.8,61.4,28.82,SSE,158,0.0,0.0,52,0.00,,,0.00,WSDL version 420,2013-05-21 22:47:00,
2013-05-21 18:49:00,80.8,61.4,28.82,SSE,158,0.6,2.5,51,0.00,,,0.00,WSDL version 420,2013-05-21 22:49:00,
2013-05-21 18:51:00,80.8,61.5,28.82,SE,143,1.1,2.5,53,0.00,,,0.00,WSDL version 420,2013-05-21 22:51:00,
2013-05-21 18:55:00,80.5,61.7,28.82,South,180,0.0,2.5,52,0.00,,,0.00,WSDL version 420,2013-05-21 22:55:00,
2013-05-21 18:57:00,80.3,61.0,28.82,North,-999,-999.0,-999.0,51,0.00,,,0.00,WSDL version 420,2013-05-21 22:57:00,
2013-05-21 19:01:00,80.1,61.0,28.82,North,-999,-999.0,-999.0,54,0.00,,,0.00,WSDL version 420,2013-05-21 23:01:00,
2013-05-21 19:03:00,79.8,61.5,28.82,South,180,0.0,0.0,54,0.00,,,0.00,WSDL version 420,2013-05-21 23:03:00,
2013-05-21 19:07:00,79.3,60.7,28.82,West,270,0.0,0.0,52,0.00,,,0.00,WSDL version 420,2013-05-21 23:07:00,
2013-05-21 19:09:00,79.2,60.1,28.82,SSW,203,0.0,0.0,51,0.00,,,0.00,WSDL version 420,2013-05-21 23:09:00,
2013-05-21 19:13:00,79.0,59.3,28.85,North,-999,-999.0,-999.0,51,0.00,,,0.00,WSDL version 420,2013-05-21 23:13:00,
2013-05-21 19:15:00,78.9,59.2,28.85,East,90,1.3,0.0,50,0.00,,,0.00,WSDL version 420,2013-05-21 23:15:00,
2013-05-21 19:17:00,78.8,59.0,28.85,East,90,0.0,0.0,51,0.00,,,0.00,WSDL version 420,2013-05-21 23:17:00,
2013-05-21 19:19:00,78.8,58.8,28.85,East,101,0.0,0.0,50,0.00,,,0.00,WSDL version 420,2013-05-21 23:19:00,
2013-05-21 19:21:00,78.7,59.0,28.85,North,-999,-999.0,-999.0,51,0.00,,,0.00,WSDL version 420,2013-05-21 23:21:00,
2013-05-21 19:25:00,78.5,58.9,28.85,North,-999,-999.0,-999.0,51,0.00,,,0.00,WSDL version 420,2013-05-21 23:25:00,
2013-05-21 19:27:00,78.4,58.8,28.85,East,90,0.0,0.0,51,0.00,,,0.00,WSDL version 420,2013-05-21 23:27:00,
2013-05-21 19:29:00,78.3,58.9,28.85,East,90,0.0,0.0,52,0.00,,,0.00,WSDL version 420,2013-05-21 23:29:00,
2013-05-21 19:31:00,78.2,59.0,28.85,ESE,113,0.0,0.0,52,0.00,,,0.00,WSDL version 420,2013-05-21 23:31:00,
2013-05-21 19:36:00,78.0,59.0,28.85,ESE,113,0.0,0.0,52,0.00,,,0.00,WSDL version 420,2013-05-21 23:36:00,
2013-05-21 19:37:00,77.9,58.9,28.85,ESE,113,0.0,0.0,52,0.00,,,0.00,WSDL version 420,2013-05-21 23:37:00,
2013-05-21 19:39:00,77.8,58.8,28.85,ESE,113,0.0,0.0,52,0.00,,,0.00,WSDL version 420,2013-05-21 23:39:00,
2013-05-21 19:43:00,77.7,58.7,28.85,East,90,0.0,0.0,52,0.00,,,0.00,WSDL version 420,2013-05-21 23:43:00,
2013-05-21 19:45:00,77.7,58.7,28.85,SSE,158,0.0,0.0,52,0.00,,,0.00,WSDL version 420,2013-05-21 23:45:00,
2013-05-21 19:47:00,77.6,58.4,28.85,NE,45,0.0,2.0,51,0.00,,,0.00,WSDL version 420,2013-05-21 23:47:00,
2013-05-21 19:51:00,77.5,58.3,28.85,North,0,0.0,2.0,52,0.00,,,0.00,WSDL version 420,2013-05-21 23:51:00,
2013-05-21 19:53:00,77.5,58.4,28.85,NE,45,0.0,2.0,52,0.00,,,0.00,WSDL version 420,2013-05-21 23:53:00,
2013-05-21 19:55:00,77.4,58.5,28.85,NE,45,0.0,2.0,53,0.00,,,0.00,WSDL version 420,2013-05-21 23:55:00,
2013-05-21 20:01:00,77.2,58.5,28.85,North,0,0.0,0.0,53,0.00,,,0.00,WSDL version 420,2013-05-22 00:01:00,
2013-05-21 20:03:00,77.1,58.7,28.85,East,90,0.0,0.0,53,0.00,,,0.00,WSDL version 420,2013-05-22 00:03:00,
2013-05-21 20:05:00,77.0,58.6,28.85,East,90,0.0,0.0,53,0.00,,,0.00,WSDL version 420,2013-05-22 00:05:00,
2013-05-21 20:09:00,76.8,58.8,28.85,East,90,0.0,0.0,54,0.00,,,0.00,WSDL version 420,2013-05-22 00:09:00,
2013-05-21 20:11:00,76.7,58.8,28.85,NNW,338,0.0,0.0,54,0.00,,,0.00,WSDL version 420,2013-05-22 00:11:00,
2013-05-21 20:13:00,76.6,58.7,28.85,NNW,338,0.0,0.0,54,0.00,,,0.00,WSDL version 420,2013-05-22 00:13:00,
2013-05-21 20:19:00,76.3,58.4,28.85,NNW,338,0.0,0.0,54,0.00,,,0.00,WSDL version 420,2013-05-22 00:19:00,
2013-05-21 20:21:00,76.2,58.6,28.85,North,-999,-999.0,-999.0,55,0.00,,,0.00,WSDL version 420,2013-05-22 00:21:00,
2013-05-21 20:25:00,76.0,59.0,28.85,NNW,338,0.0,0.0,56,0.00,,,0.00,WSDL version 420,2013-05-22 00:25:00,
2013-05-21 20:27:00,76.0,59.1,28.85,NNW,338,0.0,0.0,56,0.00,,,0.00,WSDL version 420,2013-05-22 00:27:00,
2013-05-21 20:29:00,75.9,59.2,28.85,NNW,338,0.0,0.0,57,0.00,,,0.00,WSDL version 420,2013-05-22 00:29:00,
2013-05-21 20:33:00,75.8,59.7,28.85,NNW,338,0.0,0.0,58,0.00,,,0.00,WSDL version 420,2013-05-22 00:33:00,
2013-05-21 20:35:00,75.7,59.8,28.85,NNW,338,0.0,0.0,58,0.00,,,0.00,WSDL version 420,2013-05-22 00:35:00,
2013-05-21 20:39:00,75.5,59.8,28.85,NNW,338,0.0,0.0,59,0.00,,,0.00,WSDL version 420,2013-05-22 00:39:00,
2013-05-21 20:41:00,75.4,59.9,28.85,NNW,332,0.0,0.0,59,0.00,,,0.00,WSDL version 420,2013-05-22 00:41:00,
2013-05-21 20:43:00,75.3,60.1,28.85,SSW,208,0.0,0.0,60,0.00,,,0.00,WSDL version 420,2013-05-22 00:43:00,
2013-05-21 20:47:00,75.1,60.4,28.85,North,-999,-999.0,-999.0,60,0.00,,,0.00,WSDL version 420,2013-05-22 00:47:00,
2013-05-21 20:53:00,74.8,60.0,28.85,SSW,203,0.0,0.0,60,0.00,,,0.00,WSDL version 420,2013-05-22 00:53:00,
2013-05-21 20:55:00,74.6,60.0,28.85,SSW,203,0.0,0.0,61,0.00,,,0.00,WSDL version 420,2013-05-22 00:55:00,
2013-05-21 20:57:00,74.5,60.1,28.85,SSW,203,0.0,0.0,61,0.00,,,0.00,WSDL version 420,2013-05-22 00:57:00,
2013-05-21 20:59:00,74.5,60.2,28.85,SSW,203,0.0,0.0,62,0.00,,,0.00,WSDL version 420,2013-05-22 00:59:00,
2013-05-21 21:01:00,74.4,60.3,28.85,North,0,0.0,0.0,62,0.00,,,0.00,WSDL version 420,2013-05-22 01:01:00,
2013-05-21 21:03:00,74.3,60.4,28.85,SSW,203,0.0,0.0,62,0.00,,,0.00,WSDL version 420,2013-05-22 01:03:00,
2013-05-21 21:05:00,74.3,60.5,28.85,North,-999,-999.0,-999.0,62,0.00,,,0.00,WSDL version 420,2013-05-22 01:05:00,
2013-05-21 21:09:00,74.2,60.3,28.85,SSW,203,0.0,0.0,62,0.00,,,0.00,WSDL version 420,2013-05-22 01:09:00,
2013-05-21 21:11:00,74.0,60.2,28.85,SSW,203,0.0,0.0,62,0.00,,,0.00,WSDL version 420,2013-05-22 01:11:00,
2013-05-21 21:15:00,73.9,60.4,28.85,SSW,203,0.0,0.0,63,0.00,,,0.00,WSDL version 420,2013-05-22 01:15:00,
2013-05-21 21:19:00,73.7,60.3,28.85,SSW,203,0.0,0.0,63,0.00,,,0.00,WSDL version 420,2013-05-22 01:19:00,
2013-05-21 21:21:00,73.5,60.2,28.85,SSW,203,0.0,0.0,63,0.00,,,0.00,WSDL version 420,2013-05-22 01:21:00,
2013-05-21 21:25:00,73.3,60.1,28.85,SSW,203,0.0,0.0,64,0.00,,,0.00,WSDL version 420,2013-05-22 01:25:00,
2013-05-21 21:27:00,73.2,60.2,28.85,SSW,203,0.0,0.0,64,0.00,,,0.00,WSDL version 420,2013-05-22 01:27:00,
2013-05-21 21:29:00,73.1,60.2,28.85,SSW,203,0.0,0.0,64,0.00,,,0.00,WSDL version 420,2013-05-22 01:29:00,
2013-05-21 21:31:00,73.0,60.2,28.85,North,-999,-999.0,-999.0,64,0.00,,,0.00,WSDL version 420,2013-05-22 01:31:00,
2013-05-21 21:33:00,73.0,60.1,28.85,SE,135,0.0,0.0,64,0.00,,,0.00,WSDL version 420,2013-05-22 01:33:00,
2013-05-21 21:35:00,72.9,60.0,28.85,SE,135,0.0,0.0,64,0.00,,,0.00,WSDL version 420,2013-05-22 01:35:00,
2013-05-21 21:37:00,72.9,60.2,28.85,SE,135,0.0,0.0,65,0.00,,,0.00,WSDL version 420,2013-05-22 01:37:00,
2013-05-21 21:41:00,72.8,60.4,28.85,SSE,158,0.0,0.0,65,0.00,,,0.00,WSDL version 420,2013-05-22 01:41:00,
2013-05-21 21:43:00,72.8,60.3,28.85,East,90,0.0,0.0,65,0.00,,,0.00,WSDL version 420,2013-05-22 01:43:00,
2013-05-21 21:45:00,72.6,60.2,28.85,NNE,23,0.0,0.0,65,0.00,,,0.00,WSDL version 420,2013-05-22 01:45:00,
2013-05-21 21:47:00,72.5,60.2,28.85,NNE,23,0.0,0.0,66,0.00,,,0.00,WSDL version 420,2013-05-22 01:47:00,
2013-05-21 21:51:00,72.3,60.3,28.85,South,180,0.0,0.0,66,0.00,,,0.00,WSDL version 420,2013-05-22 01:51:00,
2013-05-21 21:53:00,72.3,60.3,28.85,South,180,0.0,0.0,66,0.00,,,0.00,WSDL version 420,2013-05-22 01:53:00,
2013-05-21 21:55:00,72.3,60.3,28.85,South,180,0.0,0.0,66,0.00,,,0.00,WSDL version 420,2013-05-22 01:55:00,
2013-05-21 21:59:00,72.3,60.3,28.85,South,180,0.0,0.0,66,0.00,,,0.00,WSDL version 420,2013-05-22 01:59:00,
2013-05-21 22:01:00,72.3,60.4,28.85,South,180,0.0,0.0,67,0.00,,,0.00,WSDL version 420,2013-05-22 02:01:00,
2013-05-21 22:03:00,72.3,60.5,28.85,South,180,0.0,0.0,67,0.00,,,0.00,WSDL version 420,2013-05-22 02:03:00,
2013-05-21 22:07:00,72.1,60.6,28.85,North,0,0.0,0.0,67,0.00,,,0.00,WSDL version 420,2013-05-22 02:07:00,
2013-05-21 22:09:00,72.1,60.6,28.85,North,-999,-999.0,-999.0,67,0.00,,,0.00,WSDL version 420,2013-05-22 02:09:00,
2013-05-21 22:11:00,72.1,60.6,28.85,South,180,0.0,0.0,67,0.00,,,0.00,WSDL version 420,2013-05-22 02:11:00,
2013-05-21 22:13:00,72.1,60.6,28.85,South,180,0.0,0.0,67,0.00,,,0.00,WSDL version 420,2013-05-22 02:13:00,
2013-05-21 22:17:00,72.0,60.5,28.85,South,180,0.0,0.0,67,0.00,,,0.00,WSDL version 420,2013-05-22 02:17:00,
2013-05-21 22:19:00,72.0,60.4,28.85,North,0,0.0,0.0,67,0.00,,,0.00,WSDL version 420,2013-05-22 02:19:00,
2013-05-21 22:21:00,71.9,60.4,28.85,South,180,0.0,0.0,67,0.00,,,0.00,WSDL version 420,2013-05-22 02:21:00,
2013-05-21 22:23:00,71.8,60.4,28.85,South,180,0.0,0.0,67,0.00,,,0.00,WSDL version 420,2013-05-22 02:23:00,
2013-05-21 22:25:00,71.7,60.4,28.85,North,-999,-999.0,-999.0,68,0.00,,,0.00,WSDL version 420,2013-05-22 02:25:00,
2013-05-21 22:27:00,71.6,60.4,28.88,South,180,0.0,0.0,68,0.00,,,0.00,WSDL version 420,2013-05-22 02:27:00,
2013-05-21 22:29:00,71.5,60.4,28.88,South,180,0.0,0.0,68,0.00,,,0.00,WSDL version 420,2013-05-22 02:29:00,
2013-05-21 22:31:00,71.5,60.3,28.88,South,180,0.0,0.0,68,0.00,,,0.00,WSDL version 420,2013-05-22 02:31:00,
2013-05-21 22:33:00,71.4,60.3,28.88,South,180,0.0,0.0,68,0.00,,,0.00,WSDL version 420,2013-05-22 02:33:00,
2013-05-21 22:35:00,71.4,60.3,28.88,South,180,0.0,0.0,68,0.00,,,0.00,WSDL version 420,2013-05-22 02:35:00,
2013-05-21 22:37:00,71.3,60.3,28.88,South,180,0.0,0.0,69,0.00,,,0.00,WSDL version 420,2013-05-22 02:37:00,
2013-05-21 22:41:00,71.1,60.4,28.88,South,180,0.0,0.0,69,0.00,,,0.00,WSDL version 420,2013-05-22 02:41:00,
2013-05-21 22:43:00,71.1,60.4,28.88,South,180,0.0,0.0,69,0.00,,,0.00,WSDL version 420,2013-05-22 02:43:00,
2013-05-21 22:45:00,71.2,60.5,28.88,South,180,0.0,0.0,69,0.00,,,0.00,WSDL version 420,2013-05-22 02:45:00,
2013-05-21 22:47:00,71.2,60.6,28.88,South,180,0.0,0.0,69,0.00,,,0.00,WSDL version 420,2013-05-22 02:47:00,
2013-05-21 22:51:00,71.2,60.8,28.88,South,180,0.0,0.0,70,0.00,,,0.00,WSDL version 420,2013-05-22 02:51:00,
2013-05-21 22:55:00,71.3,61.0,28.88,South,180,0.0,0.0,70,0.00,,,0.00,WSDL version 420,2013-05-22 02:55:00,
2013-05-21 22:57:00,71.4,61.1,28.88,North,0,0.0,0.0,70,0.00,,,0.00,WSDL version 420,2013-05-22 02:57:00,
2013-05-21 22:59:00,71.3,61.1,28.88,South,180,0.0,0.0,70,0.00,,,0.00,WSDL version 420,2013-05-22 02:59:00,
2013-05-21 23:01:00,71.2,61.0,28.88,South,180,0.0,0.0,70,0.00,,,0.00,WSDL version 420,2013-05-22 03:01:00,
2013-05-21 23:03:00,71.2,60.9,28.88,South,180,0.0,0.0,70,0.00,,,0.00,WSDL version 420,2013-05-22 03:03:00,
2013-05-21 23:05:00,71.1,60.8,28.88,South,180,0.0,0.0,70,0.00,,,0.00,WSDL version 420,2013-05-22 03:05:00,
2013-05-21 23:09:00,71.1,60.8,28.88,South,180,0.0,0.0,70,0.00,,,0.00,WSDL version 420,2013-05-22 03:09:00,
2013-05-21 23:11:00,71.1,60.8,28.88,South,180,0.0,0.0,70,0.00,,,0.00,WSDL version 420,2013-05-22 03:11:00,
2013-05-21 23:13:00,71.1,60.8,28.88,South,180,0.0,0.0,70,0.00,,,0.00,WSDL version 420,2013-05-22 03:13:00,
2013-05-21 23:15:00,71.0,60.7,28.88,South,180,0.0,0.0,70,0.00,,,0.00,WSDL version 420,2013-05-22 03:15:00,
2013-05-21 23:21:00,70.8,60.6,28.88,South,180,0.0,0.0,70,0.00,,,0.00,WSDL version 420,2013-05-22 03:21:00,
2013-05-21 23:23:00,70.8,60.6,28.88,South,180,0.0,0.0,71,0.00,,,0.00,WSDL version 420,2013-05-22 03:23:00,
2013-05-21 23:25:00,70.7,60.6,28.88,North,-999,-999.0,-999.0,71,0.00,,,0.00,WSDL version 420,2013-05-22 03:25:00,
2013-05-21 23:27:00,70.7,60.8,28.88,South,180,0.0,0.0,71,0.00,,,0.00,WSDL version 420,2013-05-22 03:27:00,
2013-05-21 23:29:00,70.7,60.8,28.88,South,180,0.0,0.0,71,0.00,,,0.00,WSDL version 420,2013-05-22 03:29:00,
2013-05-21 23:33:00,70.6,60.8,28.88,North,-999,-999.0,-999.0,71,0.00,,,0.00,WSDL version 420,2013-05-22 03:33:00,
2013-05-21 23:35:00,70.5,60.7,28.88,South,180,0.0,0.0,71,0.00,,,0.00,WSDL version 420,2013-05-22 03:35:00,
2013-05-21 23:39:00,70.7,60.8,28.88,South,180,0.0,0.0,71,0.00,,,0.00,WSDL version 420,2013-05-22 03:39:00,
2013-05-21 23:41:00,70.7,60.8,28.88,South,180,0.0,0.0,71,0.00,,,0.00,WSDL version 420,2013-05-22 03:41:00,
2013-05-21 23:43:00,70.7,60.8,28.88,North,0,0.0,0.0,71,0.00,,,0.00,WSDL version 420,2013-05-22 03:43:00,
2013-05-21 23:45:00,70.6,60.8,28.88,South,180,0.0,0.0,71,0.00,,,0.00,WSDL version 420,2013-05-22 03:45:00,
2013-05-21 23:47:00,70.6,60.7,28.88,South,180,0.0,0.0,71,0.00,,,0.00,WSDL version 420,2013-05-22 03:47:00,
2013-05-21 23:53:00,70.2,60.4,28.88,South,180,0.0,0.0,71,0.00,,,0.00,WSDL version 420,2013-05-22 03:53:00,
2013-05-21 23:55:00,70.1,60.3,28.88,South,180,0.0,0.0,71,0.00,,,0.00,WSDL version 420,2013-05-22 03:55:00,
2013-05-21 23:57:00,70.0,60.2,28.88,South,180,0.0,0.0,71,0.00,,,0.00,WSDL version 420,2013-05-22 03:57:00,
2013-05-21 23:59:00,70.0,60.3,28.88,South,180,0.0,0.0,72,0.00,,,0.00,WSDL version 420,2013-05-22 03:59:00,